Location: Tamazert
(32.6352°N, 5.2072°W)
Time: 16:55:04
(UTC+00:00)

THORAD AGENA D DEB - Visible Passes

Search period start: 20 March 2023 00:00
Search period end: 30 March 2023 00:00
Orbit: 971 x 980 km, 100.2° (Epoch: 18 March)

Date Brightness Start Highest point End Pass type
(mag) Time Alt. Az. Time Alt. Az. Time Alt. Az.
20 Mar ? 04:00:15 10° ESE 04:05:09 26° ENE 04:10:04 10° NNE visible
20 Mar ? 05:42:19 10° S 05:47:58 40° W 05:53:39 10° NNW visible
21 Mar ? 04:24:08 10° SE 04:29:48 42° ENE 04:35:29 10° N visible
21 Mar ? 18:53:03 10° N 18:58:13 29° WNW 19:03:22 10° SW visible
22 Mar ? 04:48:30 10° SSE 04:54:32 69° ENE 05:00:36 10° N visible
22 Mar ? 19:18:48 10° NNW 19:22:47 18° WNW 19:26:46 10° WSW visible
23 Mar ? 03:33:50 10° E 03:36:59 15° ENE 03:40:07 10° NNE visible
23 Mar ? 05:13:17 10° S 05:19:20 74° WSW 05:25:27 10° NNW visible
23 Mar ? 19:45:53 10° NW 19:47:15 11° WNW 19:48:36 10° WNW visible
24 Mar ? 03:56:48 10° ESE 04:01:30 24° ENE 04:06:12 10° NNE visible
24 Mar ? 05:38:28 10° S 05:44:13 45° W 05:50:02 10° NNW visible
25 Mar ? 04:20:34 10° SE 04:26:07 38° ENE 04:31:40 10° N visible
26 Mar ? 04:44:50 10° SSE 04:50:48 62° ENE 04:56:49 10° N visible
26 Mar ? 19:14:48 10° NNW 19:19:06 20° WNW 19:23:23 10° WSW visible
27 Mar ? 03:30:40 10° E 03:33:18 13° ENE 03:35:57 10° NE visible
27 Mar ? 05:09:30 10° SSE 05:15:35 82° WSW 05:21:43 10° NNW visible
27 Mar ? 19:41:20 10° NW 19:43:34 12° WNW 19:45:48 10° W visible
28 Mar ? 03:53:21 10° ESE 03:57:48 22° ENE 04:02:15 10° NNE visible
28 Mar ? 05:34:35 10° S 05:40:27 50° WSW 05:46:21 10° NNW visible
29 Mar ? 04:16:59 10° SE 04:22:22 35° ENE 04:27:48 10° N visible
